Location: Huberhof
(49.2050°N, 7.4980°E)
Time: 01:21:22
(UTC+00:00)

Cosmos 1076 Rocket - Pass Details

Date: 29 October 2020
Orbit: 589 x 613 km, 82.5° (Epoch: 26 November)

Event Time Altitude Azimuth Distance (km) Brightness Sun altitude
Rises 18:26:26 0° 346° (NNW) 2,835 7.2 -22.2°
Reaches altitude 10° 18:28:41 10° 342° (NNW) 1,930 6.4 -22.6°
Maximum altitude 18:32:49 54° 265° (W) 723 4.2 -23.3°
Drops below altitude 10° 18:36:58 10° 188° (S) 1,921 6.1 -23.9°
Sets 18:39:11 0° 184° (S) 2,820 6.9 -24.3°
